| time (UTC) | temp C | wind direction | speed KPH | gust KPH | rain 1hr cm | rain 24hr cm | rain mn cm | humidity % | barometer mb |
| 20260502152217 | 23 | 202 | 6.4 | 17.7 | 0.00 | 1.98 | 0.00 | 35 | 1016.6 |
| 20260502151209 | 23 | 270 | 4.8 | 20.9 | 0.00 | 1.98 | 0.00 | 35 | 1016.6 |
| 20260502150202 | 23 | 225 | 9.7 | 25.7 | 0.00 | 1.98 | 0.00 | 35 | 1016.7 |
| 20260502140126 | 23 | 180 | 6.4 | 17.7 | 0.00 | 1.98 | 0.00 | 31 | 1017.4 |
| 20260502123030 | 24 | 247 | 9.7 | 22.5 | 0.00 | 1.98 | 0.00 | 35 | 1018.5 |
| 20260502122023 | 23 | 315 | 6.4 | 12.9 | 0.00 | 1.98 | 0.00 | 33 | 1018.4 |
| 20260502121017 | 23 | 202 | 3.2 | 12.9 | 0.00 | 1.98 | 0.00 | 34 | 1018.3 |
| 20260502115005 | 23 | 180 | 1.6 | 14.5 | 0.00 | 1.98 | 0.00 | 35 | 1018.3 |
| 20260502113959 | 23 | 180 | 6.4 | 14.5 | 0.00 | 1.98 | 0.00 | 35 | 1018.8 |
| 20260502112952 | 23 | 157 | 6.4 | 14.5 | 0.00 | 1.98 | 0.00 | 39 | 1018.7 |
| 20260502111945 | 23 | 135 | 3.2 | 12.9 | 0.00 | 1.98 | 0.00 | 38 | 1018.8 |
| 20260502110943 | 22 | 180 | 3.2 | 12.9 | 0.00 | 1.98 | 0.00 | 40 | 1018.7 |
| 20260502105935 | 22 | 202 | 3.2 | 12.9 | 0.00 | 1.98 | 0.00 | 42 | 1019.0 |
| 20260502104928 | 22 | 202 | 6.4 | 11.3 | 0.00 | 1.98 | 0.00 | 40 | 1018.9 |
| 20260502103922 | 21 | 247 | 3.2 | 12.9 | 0.00 | 1.98 | 0.00 | 43 | 1019.3 |
| 20260502102915 | 22 | 157 | 4.8 | 14.5 | 0.00 | 1.98 | 0.00 | 45 | 1019.1 |
| 20260502101912 | 21 | 202 | 6.4 | 14.5 | 0.00 | 1.98 | 0.00 | 45 | 1019.2 |
| 20260502100902 | 21 | 247 | 6.4 | 12.9 | 0.00 | 1.98 | 0.00 | 45 | 1019.3 |
| 20260502090826 | 20 | 292 | 8.0 | 17.7 | 0.00 | 1.98 | 0.00 | 48 | 1019.7 |
| 20260502070711 | 15 | 157 | 4.8 | 6.4 | 0.00 | 1.98 | 0.00 | 58 | 1020.0 |
| 20260502065709 | 15 | 157 | 3.2 | 9.7 | 0.00 | 1.98 | 0.00 | 59 | 1019.7 |
| 20260502064658 | 14 | 270 | 6.4 | 14.5 | 0.00 | 1.98 | 0.00 | 57 | 1019.9 |
| 20260502063653 | 14 | 292 | 6.4 | 12.9 | 0.00 | 1.98 | 0.00 | 58 | 1019.9 |
| 20260502062647 | 14 | 247 | 3.2 | 12.9 | 0.00 | 1.98 | 0.00 | 60 | 1020.2 |
| 20260502061640 | 13 | 247 | 4.8 | 12.9 | 0.00 | 1.98 | 0.00 | 61 | 1020.2 |
| 20260502060638 | 13 | 315 | 4.8 | 12.9 | 0.00 | 1.98 | 0.00 | 62 | 1020.0 |
| 20260502055628 | 12 | 315 | 4.8 | 11.3 | 0.00 | 1.98 | 0.00 | 63 | 1020.3 |
| 20260502054621 | 12 | 225 | 4.8 | 9.7 | 0.00 | 1.98 | 0.00 | 63 | 1020.4 |
| 20260502053620 | 12 | 315 | 4.8 | 12.9 | 0.00 | 1.98 | 0.00 | 66 | 1020.2 |
| 20260502052609 | 11 | 292 | 6.4 | 9.7 | 0.00 | 1.98 | 0.00 | 67 | 1020.4 |
| 20260502051606 | 11 | 157 | 3.2 | 9.7 | 0.00 | 1.98 | 0.00 | 70 | 1020.6 |
| 20260502050557 | 10 | 292 | 3.2 | 6.4 | 0.00 | 1.98 | 0.00 | 70 | 1020.3 |
| 20260502045552 | 10 | 270 | 3.2 | 6.4 | 0.00 | 1.98 | 0.00 | 73 | 1020.3 |
| 20260502044545 | 9 | 270 | 3.2 | 6.4 | 0.00 | 1.98 | 0.00 | 75 | 1020.4 |
| 20260502043539 | 9 | 292 | 3.2 | 6.4 | 0.00 | 1.98 | 0.00 | 76 | 1020.3 |
| 20260502042536 | 8 | 315 | 3.2 | 6.4 | 0.00 | 1.98 | 0.00 | 78 | 1020.2 |
| 20260502041526 | 8 | 292 | 3.2 | 6.4 | 0.00 | 1.98 | 0.00 | 80 | 1020.3 |
| 20260502035514 | 6 | 270 | 0.0 | 3.2 | 0.00 | 1.98 | 0.00 | 85 | 1020.4 |
| 20260502034507 | 6 | 247 | 0.0 | 0.0 | 0.00 | 1.98 | 0.00 | 88 | 1020.4 |
| 20260502033504 | 5 | 247 | 0.0 | 0.0 | 0.00 | 1.98 | 0.00 | 89 | 1020.5 |
| 20260502032456 | 5 | 247 | 0.0 | 0.0 | 0.00 | 1.98 | 0.00 | 91 | 1020.5 |
| 20260502031449 | 5 | 247 | 0.0 | 0.0 | 0.00 | 1.98 | 0.00 | 91 | 1020.5 |
| 20260502030442 | 4 | 247 | 0.0 | 0.0 | 0.00 | 1.98 | 0.00 | 92 | 1020.7 |
| 20260502025437 | 3 | 247 | 0.0 | 0.0 | 0.00 | 1.98 | 0.00 | 91 | 1020.6 |
| 20260502024434 | 4 | 247 | 0.0 | 0.0 | 0.00 | 1.98 | 0.00 | 92 | 1020.6 |
| 20260502023424 | 5 | 247 | 0.0 | 0.0 | 0.00 | 1.98 | 0.00 | 92 | 1020.6 |
| 20260502022418 | 4 | 247 | 0.0 | 0.0 | 0.00 | 1.98 | 0.00 | 91 | 1020.7 |
| 20260502021412 | 4 | 247 | 0.0 | 0.0 | 0.00 | 1.98 | 0.00 | 91 | 1020.7 |
| 20260502020406 | 4 | 247 | 0.0 | 0.0 | 0.00 | 1.98 | 0.00 | 91 | 1020.9 |
| 20260502015403 | 4 | 247 | 0.0 | 0.0 | 0.00 | 1.98 | 0.00 | 92 | 1020.9 |
| 20260502014353 | 5 | 247 | 0.0 | 0.0 | 0.00 | 1.98 | 0.00 | 93 | 1021.1 |
| 20260502013346 | 4 | 247 | 0.0 | 0.0 | 0.00 | 1.98 | 0.00 | 93 | 1021.3 |
| 20260502012341 | 5 | 247 | 0.0 | 0.0 | 0.00 | 1.98 | 0.00 | 94 | 1021.3 |
| 20260502011335 | 4 | 247 | 0.0 | 0.0 | 0.00 | 1.98 | 0.00 | 93 | 1021.3 |
| 20260502010332 | 4 | 247 | 0.0 | 0.0 | 0.00 | 1.98 | 0.00 | 93 | 1021.1 |
| 20260502005322 | 4 | 247 | 0.0 | 0.0 | 0.00 | 1.98 | 0.00 | 92 | 1021.3 |
| 20260502004316 | 4 | 247 | 0.0 | 0.0 | 0.00 | 1.98 | 0.00 | 91 | 1021.2 |
| 20260502003310 | 4 | 247 | 0.0 | 0.0 | 0.00 | 1.98 | 0.00 | 91 | 1021.4 |
| 20260502002306 | 5 | 247 | 0.0 | 0.0 | 0.00 | 1.98 | 0.00 | 90 | 1021.5 |
| 20260502001300 | 5 | 247 | 0.0 | 0.0 | 0.00 | 1.98 | 0.00 | 90 | 1021.3 |
| 20260502000251 | 5 | 247 | 0.0 | 0.0 | 0.00 | 1.98 | 0.00 | 90 | 1021.5 |
| 20260501235245 | 5 | 247 | 0.0 | 0.0 | 0.00 | 1.98 | 0.00 | 90 | 1021.7 |
| 20260501234238 | 5 | 247 | 0.0 | 0.0 | 0.00 | 1.98 | 0.00 | 89 | 1021.5 |
| 20260501233232 | 5 | 247 | 0.0 | 0.0 | 0.00 | 1.98 | 0.00 | 89 | 1021.6 |
| 20260501232230 | 5 | 247 | 0.0 | 0.0 | 0.00 | 1.98 | 0.00 | 89 | 1021.6 |
| 20260501231220 | 5 | 247 | 0.0 | 0.0 | 0.00 | 1.98 | 0.00 | 88 | 1021.5 |
| 20260501230213 | 6 | 247 | 0.0 | 0.0 | 0.00 | 1.98 | 0.00 | 89 | 1021.3 |
| 20260501225209 | 6 | 247 | 0.0 | 0.0 | 0.00 | 1.98 | 0.00 | 89 | 1021.4 |
| 20260501224201 | 6 | 247 | 0.0 | 0.0 | 0.00 | 1.98 | 0.00 | 88 | 1021.4 |
| 20260501223155 | 6 | 247 | 0.0 | 0.0 | 0.00 | 1.98 | 0.00 | 89 | 1021.4 |
| 20260501222148 | 6 | 247 | 0.0 | 0.0 | 0.00 | 1.98 | 0.00 | 88 | 1021.4 |
| 20260501221146 | 6 | 247 | 0.0 | 0.0 | 0.00 | 1.98 | 0.00 | 88 | 1021.4 |
| 20260501220137 | 7 | 247 | 0.0 | 0.0 | 0.00 | 1.98 | 0.00 | 88 | 1021.6 |
| 20260501215130 | 7 | 247 | 0.0 | 0.0 | 0.00 | 1.98 | 0.00 | 88 | 1021.4 |
| 20260501214124 | 7 | 247 | 0.0 | 0.0 | 0.00 | 1.98 | 0.00 | 87 | 1021.5 |
| 20260501213119 | 7 | 247 | 0.0 | 0.0 | 0.00 | 1.98 | 0.00 | 86 | 1021.4 |
| 20260501212116 | 7 | 247 | 0.0 | 0.0 | 0.00 | 1.98 | 0.00 | 85 | 1021.5 |
| 20260501211105 | 7 | 247 | 0.0 | 0.0 | 0.00 | 1.98 | 0.00 | 85 | 1021.6 |
| 20260501210100 | 8 | 247 | 0.0 | 0.0 | 0.00 | 1.98 | 0.00 | 84 | 1021.6 |
| 20260501205053 | 8 | 247 | 0.0 | 3.2 | 0.00 | 1.98 | 0.00 | 84 | 1021.6 |
| 20260501204047 | 9 | 247 | 0.0 | 0.0 | 1.98 | 1.98 | 0.00 | 83 | 1021.1 |
| 20260501203044 | 9 | 270 | 0.0 | 0.0 | 1.98 | 1.98 | 0.00 | 82 | 1021.6 |
| 20260501202035 | 9 | 270 | 0.0 | 0.0 | 1.98 | 1.98 | 0.00 | 82 | 1021.4 |
| 20260501201028 | 10 | 270 | 0.0 | 83.7 | 1.98 | 1.98 | 0.00 | 81 | 1021.5 |
| 20260501200022 | 11 | 247 | 14.5 | 83.7 | 1.98 | 1.98 | 0.00 | 10 | 774.2 |
| 20260501195017 | 11 | 247 | 14.5 | 83.7 | 1.98 | 1.98 | 0.00 | 10 | 774.2 |
| 20260501194014 | 11 | 270 | 3.2 | 3.2 | 0.00 | 0.00 | 0.00 | 76 | 1021.5 |
| 20260501193004 | 11 | 180 | 1.6 | 3.2 | 0.00 | 0.00 | 0.00 | 78 | 1021.5 |
| 20260501191957 | 11 | 270 | 0.0 | 3.2 | 0.00 | 0.00 | 0.00 | 78 | 1021.3 |
| 20260501190951 | 11 | 270 | 0.0 | 0.0 | 0.00 | 0.00 | 0.00 | 78 | 1021.4 |
| 20260501185944 | 11 | 270 | 0.0 | 0.0 | 0.00 | 0.00 | 0.00 | 79 | 1021.3 |
| 20260501184943 | 11 | 270 | 0.0 | 0.0 | 0.00 | 0.00 | 0.00 | 77 | 1021.1 |
| 20260501183933 | 12 | 270 | 0.0 | 0.0 | 0.00 | 0.00 | 0.00 | 75 | 1021.3 |
| 20260501182926 | 12 | 270 | 0.0 | 0.0 | 0.00 | 0.00 | 0.00 | 72 | 1021.3 |
| 20260501181921 | 13 | 270 | 0.0 | 0.0 | 0.00 | 0.00 | 0.00 | 69 | 1021.3 |
| 20260501180914 | 15 | 270 | 0.0 | 0.0 | 0.00 | 0.00 | 0.00 | 65 | 1021.2 |
| 20260501175911 | 14 | 270 | 0.0 | 0.0 | 0.00 | 0.00 | 0.00 | 67 | 1021.2 |
| 20260501174901 | 15 | 270 | 0.0 | 0.0 | 0.00 | 0.00 | 0.00 | 63 | 1021.4 |
| 20260501173856 | 16 | 270 | 0.0 | 0.0 | 0.00 | 0.00 | 0.00 | 59 | 1021.1 |
| 20260501172849 | 17 | 270 | 0.0 | 0.0 | 0.00 | 0.00 | 0.00 | 56 | 1021.3 |
| 20260501171843 | 17 | 292 | 0.0 | 3.2 | 0.00 | 0.00 | 0.00 | 53 | 1021.3 |
| 20260501170839 | 17 | 270 | 1.6 | 3.2 | 0.00 | 0.00 | 0.00 | 53 | 1021.3 |
| 20260501165831 | 17 | 292 | 1.6 | 3.2 | 0.00 | 0.00 | 0.00 | 53 | 1021.3 |
| 20260501164825 | 18 | 337 | 0.0 | 6.4 | 0.00 | 0.00 | 0.00 | 53 | 1021.3 |
| 20260501163818 | 18 | 337 | 3.2 | 6.4 | 0.00 | 0.00 | 0.00 | 52 | 1021.1 |
| 20260501162812 | 18 | 270 | 3.2 | 6.4 | 0.00 | 0.00 | 0.00 | 51 | 1021.5 |
| 20260501161809 | 18 | 247 | 3.2 | 6.4 | 0.00 | 0.00 | 0.00 | 50 | 1021.5 |
| 20260501160759 | 18 | 315 | 4.8 | 9.7 | 0.00 | 0.00 | 0.00 | 51 | 1021.7 |
| 20260501155753 | 19 | 157 | 0.0 | 6.4 | 0.00 | 0.00 | 0.00 | 51 | 1021.8 |
| 20260501154747 | 19 | 180 | 1.6 | 6.4 | 0.00 | 0.00 | 0.00 | 49 | 1021.6 |
| 20260501153741 | 18 | 180 | 4.8 | 9.7 | 0.00 | 0.00 | 0.00 | 50 | 1021.8 |